St. Petersburg Airport, FL

9:41 AM EST on November 20, 2017 (GMT -0500)
Saint Petersburg-Clearwater International

Weather History for KPIE - January, 2013

Change the Weather History Date:

Thursday, January 3, 2013

  Actual Average Record
Temperature  
Mean Temperature 65 °F -  
Max Temperature 70 °F 71 °F 82 °F (1973)
Min Temperature 60 °F 56 °F 30 °F (2008)
Growing Degree Days 15 (Base 50)    
Moisture  
Dew Point 63 °F    
Average Humidity 95    
Maximum Humidity 100    
Minimum Humidity 83    
Precipitation  
Precipitation 0.32 in - - ()
Sea Level Pressure  
Sea Level Pressure 30.09 in    
Wind  
Wind Speed 4 mph (ENE)    
Max Wind Speed 15 mph    
Max Gust Speed 20 mph    
Visibility 3 miles    
Events Fog , Rain    
Averages and records for this station are not official NWS values.
T = Trace of Precipitation, MM = Missing Value Source: NWS Daily Summary

Daily Weather History Graph

Daily Weather History Graph

Search for Another Location

Airport or City:

Trip Planner

Search our weather history database for the weather conditions in past years. The results will help you decide how hot, cold, wet, or windy it might be!

Date:

Astronomy

Jan. 03, 2013 Rise Set
Actual Time 7:22 AM EST 5:48 PM EST
Civil Twilight 6:56 AM EST 6:14 PM EST
Nautical Twilight 6:27 AM EST 6:43 PM EST
Astronomical Twilight 5:59 AM EST 7:11 PM EST
Moon 11:46 PM EST (1/3) 11:06 AM EST (1/3)
Length of Visible Light 11h 17m
Length of Day
10h 25m
Waning Gibbous, 65% of the Moon is Illuminated
Jan 3
Waning Gibbous
Jan 4
Last Quarter
Jan 11
New
Jan 18
First Quarter
Jan 26
Full

Hourly Weather History & Observations

Time (EST) Temp. Dew Point Humidity Pressure Visibility Wind Dir Wind Speed Gust Speed Precip Events Conditions
12:00 AM 64.4 °F 64.4 °F 100% 30.07 in 1.0 mi Calm Calm - N/A   Mist
12:07 AM 64.4 °F 64.4 °F 100% 30.07 in 0.5 mi Calm Calm - N/A Fog Fog
12:44 AM 64.4 °F 64.4 °F 100% 30.06 in 0.5 mi Calm Calm - N/A Fog Fog
12:51 AM 64.4 °F 64.4 °F 100% 30.06 in 0.5 mi Calm Calm - N/A Fog Fog
12:53 AM 64.9 °F 64.9 °F 100% 30.06 in 0.5 mi Calm Calm - N/A Fog Fog
1:11 AM 64.4 °F 64.4 °F 100% 30.06 in 0.5 mi Calm Calm - N/A Fog Fog
1:41 AM 64.4 °F 64.4 °F 100% 30.06 in 0.8 mi Calm Calm - N/A   Mist
1:53 AM 66.0 °F 64.9 °F 96% 30.06 in 0.8 mi Calm Calm - N/A   Mist
2:25 AM 66.2 °F 64.4 °F 94% 30.06 in 0.5 mi Calm Calm - N/A Fog Fog
2:53 AM 66.2 °F 64.4 °F 94% 30.05 in 0.5 mi SE 3.5 mph - N/A Fog Fog
3:01 AM 66.2 °F 64.4 °F 94% 30.05 in 0.5 mi SSE 3.5 mph - N/A Fog Fog
3:53 AM 64.9 °F 64.9 °F 100% 30.04 in 0.8 mi SSE 5.8 mph - N/A   Mist
4:53 AM 64.9 °F 64.0 °F 97% 30.05 in 0.8 mi SSE 6.9 mph - N/A   Mist
5:14 AM 64.4 °F 64.4 °F 100% 30.05 in 0.5 mi SSE 4.6 mph - N/A Fog Fog
5:53 AM 64.0 °F 64.0 °F 100% 30.06 in 0.5 mi SSE 4.6 mph - N/A Fog Fog
6:53 AM 64.0 °F 64.0 °F 100% 30.08 in 0.5 mi SE 3.5 mph - N/A Fog Fog
7:13 AM 64.4 °F 64.4 °F 100% 30.09 in 0.5 mi SE 4.6 mph - N/A Fog Fog
7:53 AM 64.0 °F 64.0 °F 100% 30.09 in 0.8 mi SSE 3.5 mph - N/A   Overcast
8:27 AM 64.4 °F 64.4 °F 100% 30.10 in 0.5 mi East 3.5 mph - N/A Fog Fog
8:53 AM 64.0 °F 64.0 °F 100% 30.10 in 1.5 mi SE 3.5 mph - N/A   Overcast
9:53 AM 66.0 °F 64.9 °F 96% 30.12 in 2.0 mi ESE 3.5 mph - N/A   Overcast
10:07 AM 66.2 °F 64.4 °F 94% 30.12 in 2.0 mi East 5.8 mph - N/A   Overcast
10:20 AM 66.2 °F 64.4 °F 94% 30.11 in 2.0 mi ESE 5.8 mph - N/A   Overcast
10:53 AM 68.0 °F 66.0 °F 93% 30.11 in 2.0 mi SE 5.8 mph - N/A   Mostly Cloudy
11:00 AM 68.0 °F 64.4 °F 88% 30.11 in 3.0 mi Calm Calm - N/A   Mostly Cloudy
11:27 AM 69.8 °F 64.4 °F 83% 30.10 in 3.0 mi ENE 9.2 mph - N/A   Overcast
11:38 AM 66.2 °F 64.4 °F 94% 30.10 in 3.0 mi ENE 6.9 mph - N/A   Overcast
11:43 AM 66.2 °F 64.4 °F 94% 30.10 in 2.0 mi ENE 6.9 mph - N/A   Overcast
11:53 AM 66.0 °F 64.9 °F 96% 30.09 in 2.0 mi ENE 6.9 mph - N/A   Overcast
12:53 PM 68.0 °F 64.0 °F 87% 30.06 in 3.0 mi NNE 4.6 mph - N/A   Overcast
1:53 PM 68.0 °F 64.0 °F 87% 30.05 in 6.0 mi North 3.5 mph - N/A   Overcast
2:53 PM 70.0 °F 64.9 °F 84% 30.05 in 9.0 mi NW 11.5 mph - N/A   Overcast
3:53 PM 66.0 °F 63.0 °F 90% 30.07 in 10.0 mi WNW 8.1 mph - N/A   Overcast
4:01 PM 66.2 °F 62.6 °F 88% 30.08 in 2.5 mi West 6.9 mph - 0.01 in   Overcast
4:04 PM 64.4 °F 62.6 °F 94% 30.08 in 1.0 mi West 5.8 mph - 0.01 in Rain Light Rain
4:10 PM 64.4 °F 62.6 °F 94% 30.08 in 1.5 mi NW 8.1 mph - 0.03 in Rain Light Rain
4:53 PM 64.0 °F 63.0 °F 96% 30.09 in 2.5 mi NNW 8.1 mph - 0.06 in Rain Light Rain
5:00 PM 64.4 °F 62.6 °F 94% 30.08 in 2.5 mi NNW 6.9 mph - N/A Rain Light Rain
5:53 PM 64.0 °F 63.0 °F 96% 30.10 in 2.0 mi NNW 4.6 mph - 0.04 in Rain Light Rain
5:55 PM 64.4 °F 62.6 °F 94% 30.10 in 5.0 mi NNW 5.8 mph - 0.00 in Rain Light Rain
6:02 PM 64.4 °F 62.6 °F 94% 30.10 in 2.0 mi NNW 5.8 mph - 0.00 in Rain Light Rain
6:53 PM 63.0 °F 62.1 °F 97% 30.13 in 5.0 mi North 12.7 mph - 0.03 in   Overcast
7:53 PM 61.0 °F 59.0 °F 93% 30.15 in 5.0 mi NNE 13.8 mph 19.6 mph 0.02 in   Overcast
8:53 PM 60.1 °F 57.9 °F 93% 30.16 in 5.0 mi NE 15.0 mph 19.6 mph 0.02 in   Overcast
9:53 PM 60.1 °F 57.9 °F 93% 30.18 in 9.0 mi NE 10.4 mph 18.4 mph 0.00 in Rain Light Rain
10:02 PM 60.8 °F 57.2 °F 88% 30.18 in 6.0 mi NE 10.4 mph - 0.01 in Rain Light Rain
10:53 PM 60.1 °F 59.0 °F 96% 30.18 in 5.0 mi NE 10.4 mph - 0.11 in Rain Light Rain
11:00 PM 60.8 °F 59.0 °F 94% 30.18 in 4.0 mi NE 11.5 mph - 0.01 in Rain Light Rain
11:53 PM 60.1 °F 59.0 °F 96% 30.17 in 8.0 mi NE 8.1 mph - 0.04 in Rain Light Rain